Regional Weather Roundup
Issued by NWS Sioux Falls, SD

Home | Current Version | Previous Version | Text Only | Print | Product List | Glossary On
Versions: 1 2 3 4 5 6 7 8 9 10 11 12 13 14 15 16 17 18 19 20 21 22 23 24 25 26 27 28 29 30 31 32 33 34 35 36 37 38 39 40 41 42 43 44 45 46 47 48 49 50
000
ASUS43 KFSD 102010
RWRFSD

WEATHER ROUNDUP FOR SE SOUTH DAKOTA/SW MINNESOTA/NW IOWA
NATIONAL WEATHER SERVICE SIOUX FALLS SD
200 PM CST SUN DEC 10 2017

NOTE: "FAIR" INDICATES FEW OR NO CLOUDS BELOW 12,000 FEET WITH NO
SIGNIFICANT WEATHER AND OR OBSTRUCTIONS TO VISIBILITY.


SDZ038>040-050-052>070-102100-
SOUTHEAST SOUTH DAKOTA

CITY           SKY/WX    TMP DP  RH WIND       PRES   REMARKS
BROOKINGS      CLOUDY    39  28  64 NW12      30.03F
CHAMBERLAIN    SUNNY     55  23  29 NW9       30.09F
HURON          SUNNY     46  29  51 NW10      30.05F
MADISON        FAIR      37  32  81 NW10      30.03F
MITCHELL       SUNNY     47  29  49 NW10      30.08F
SIOUX FALLS    MOSUNNY   42  30  62 NW10      30.06S
WINNER         FAIR      61  17  18 NW20G25   30.10F
YANKTON        SUNNY     47  25  42 NW18      30.09F
$$

MNZ071-072-080-081-089-090-097-098-102100-
SOUTHWEST MINNESOTA

CITY           SKY/WX    TMP DP  RH WIND       PRES   REMARKS
FAIRMONT       SUNNY     35  24  64 NW16      30.02S WCI  25
JACKSON        SUNNY     36  27  69 MISG      30.03R
LUVERNE        SUNNY     39  28  65 NW10      30.06R
MARSHALL       SUNNY     38  26  62 NW10      30.03F
MONTEVIDEO     CLOUDY    34  25  69 N8        30.03F WCI  27
PIPESTONE      PTSUNNY   37  27  65 NW8       30.02F
REDWOOD FALLS  SUNNY     36  22  56 NW10      30.03S
TRACY          MOSUNNY   38  28  67 NW10      30.02F
WINDOM         SUNNY     37  21  52 NW14      30.02R
WORTHINGTON    SUNNY     38  27  64 NW16      30.04R
$$

IAZ001>003-012>014-020>022-031-032-NEZ013-014-SDZ071-102100-
NORTHWEST IOWA

CITY           SKY/WX    TMP DP  RH WIND       PRES   REMARKS
CHEROKEE       SUNNY     44  27  51 NW13G22   30.06S
DENISON        SUNNY     46  27  46 NW16      30.07S
ESTHERVILLE    SUNNY     37  27  67 NW15      30.02S
LE MARS        SUNNY     43  28  56 W12G18    30.08S
ORANGE CITY    SUNNY     45  30  57 NW15      30.06R
SHELDON        SUNNY     41  28  60 NW14      30.03F
SIOUX CITY     SUNNY     48  27  44 NW17      30.08S
SPENCER        SUNNY     41  28  60 W16       30.05R
STORM LAKE     SUNNY     43  27  52 NW16      30.04S
$$

ABBREVIATIONS USED IN REMARKS
   TC - TEMPERATURE IN CELSIUS
  WCI - WIND CHILL INDEX
   HX - HEAT INDEX
  VSB - VISIBILITY





USA.gov is the U.S. government's official web portal to all federal, state and local government web resources and services.